Tracking 30102 objects as of 12-Dec-2024
HD Live streaming from Space Station
objects crossing your sky now

STARLINK-32528

Track STARLINK-32528 now!
10-day predictions
STARLINK-32528 is classified as:


NORAD ID: 61724
Int'l Code: 2024-196T
Perigee: 453.6 km
Apogee: 455.2 km
Inclination: 53.2 °
Period: 93.5 minutes
Semi major axis: 6825 km
RCS: Unknown
Launch date: October 30, 2024
Source: United States (US)
Launch site: AIR FORCE EASTERN TEST RANGE (AFETR)
Your satellite tracking list
Your tracking list is empty




NASA's NSSDC Master Catalog

Two Line Element Set (TLE):
1 61724U 24196T   24346.49754458 -.00000679  00000-0 -70046-5 0  9993
2 61724  53.1617  49.7306 0001221 101.5627 258.5515 15.39606713  7427
Source of the keplerian elements: AFSPC